Volver al catálogo

STARLINK-35116

ActivoComunicacionesVLEO
NORAD 66078·PAYLOAD·🇺🇸 United States

Lanzado Oct 19, 2025 desde Cape Canaveral Space Force Station

Loading…

Próximos Pases (próximas 24 horas)

TLE

ActualizadoSource: CelesTrak SupGP

Época: Sep 14, 2026, 15:47 UTC

1 66078C 25235W   26257.65812500 -.00034067  00000+0 -10066-2 0  2576
2 66078  53.1567  85.0074 0001249  93.8726  95.7859 15.34406892    17

Sigue STARLINK-35116 en tiempo real con AllMySat

Download on the App Store